When you browse on this site, cookies collect data to enhance your experience and personalize the content and advertising you see.
Visit our Privacy Policy to learn more. By continuing to use the site, you agree to this use of cookies and data.
  • In Austria
  • List of Countries
  • For 7 days
  • Water Temperature
  • Satellite Maps
  • Weather Map
  • News
  • Weather Widgets
  • user-avatar
    Login

    Hourly Weather Barra

    Today, 20 February, Wednesday

    Time Temperature Precipitation Wind Pressure Humidity
    00:00 +28°C° 0 mm 1 mps 744 mmHg 70%
    01:00 +28°C° 0 mm 1 mps 744 mmHg 72%
    02:00 +27°C° 0 mm 1 mps 744 mmHg 71%
    03:00 +27°C° 0 mm 2 mps 743 mmHg 70%
    04:00 +26°C° 0 mm 2 mps 744 mmHg 79%
    05:00 +26°C° 0 mm 2 mps 744 mmHg 78%
    06:00 +27°C° 0 mm 2 mps 744 mmHg 76%
    07:00 +27°C° 0 mm 2 mps 744 mmHg 74%
    08:00 +30°C° 0 mm 3 mps 744 mmHg 63%
    09:00 +34°C° 0 mm 3 mps 744 mmHg 52%
    10:00 +37°C° 0 mm 2 mps 745 mmHg 46%
    11:00 +39°C° 0 mm 3 mps 744 mmHg 38%
    12:00 +42°C° 0 mm 3 mps 744 mmHg 30%
    13:00 +44°C° 0 mm 3 mps 743 mmHg 21%
    14:00 +44°C° 0 mm 3 mps 743 mmHg 21%
    15:00 +43°C° 0 mm 2 mps 742 mmHg 20%
    16:00 +43°C° 0 mm 2 mps 742 mmHg 20%
    17:00 +40°C° 0 mm 2 mps 742 mmHg 29%
    18:00 +36°C° 0 mm 2 mps 742 mmHg 39%
    19:00 +32°C° 0 mm 2 mps 742 mmHg 48%
    20:00 +31°C° 0 mm 2 mps 742 mmHg 47%
    21:00 +30°C° 0 mm 2 mps 743 mmHg 46%
    22:00 +29°C° 0 mm 2 mps 743 mmHg 45%
    23:00 +29°C° 0 mm 2 mps 743 mmHg 42%

    Tomorrow, 21 February, Thursday

    Time Temperature Precipitation Wind Pressure Humidity
    00:00 +29°C° 0 mm 2 mps 743 mmHg 39%
    01:00 +29°C° 0 mm 2 mps 743 mmHg 36%
    02:00 +28°C° 0 mm 2 mps 743 mmHg 35%
    03:00 +28°C° 0 mm 3 mps 742 mmHg 34%
    04:00 +27°C° 0 mm 3 mps 742 mmHg 33%
    05:00 +27°C° 0 mm 3 mps 743 mmHg 33%
    06:00 +27°C° 0 mm 3 mps 743 mmHg 34%
    07:00 +27°C° 0 mm 3 mps 743 mmHg 34%
    08:00 +30°C° 0 mm 3 mps 744 mmHg 30%
    09:00 +34°C° 0 mm 3 mps 744 mmHg 26%
    10:00 +37°C° 0 mm 3 mps 744 mmHg 22%
    11:00 +38°C° 0 mm 2 mps 744 mmHg 19%
    12:00 +40°C° 0 mm 2 mps 743 mmHg 16%
    13:00 +42°C° 0 mm 2 mps 743 mmHg 13%
    14:00 +41°C° 0 mm 2 mps 742 mmHg 14%
    15:00 +41°C° 0 mm 2 mps 742 mmHg 15%
    16:00 +41°C° 0 mm 2 mps 741 mmHg 15%
    17:00 +38°C° 0 mm 2 mps 741 mmHg 23%
    18:00 +33°C° 0 mm 1 mps 742 mmHg 30%
    19:00 +30°C° 0 mm 1 mps 742 mmHg 37%
    20:00 +29°C° 0 mm 1 mps 742 mmHg 37%
    21:00 +28°C° 0 mm 1 mps 743 mmHg 38%
    22:00 +27°C° 0 mm 1 mps 743 mmHg 38%
    23:00 +26°C° 0 mm 1 mps 743 mmHg 39%

    Day after tomorrow, 22 February, Friday

    Time Temperature Precipitation Wind Pressure Humidity
    00:00 +26°C° 0 mm 1 mps 743 mmHg 39%
    01:00 +25°C° 0 mm 1 mps 743 mmHg 40%
    02:00 +25°C° 0 mm 1 mps 743 mmHg 40%
    03:00 +24°C° 0 mm 2 mps 742 mmHg 39%
    04:00 +24°C° 0 mm 2 mps 742 mmHg 39%
    05:00 +23°C° 0 mm 2 mps 742 mmHg 40%
    06:00 +23°C° 0 mm 2 mps 743 mmHg 40%
    07:00 +23°C° 0 mm 2 mps 743 mmHg 41%
    08:00 +26°C° 0 mm 2 mps 744 mmHg 39%
    09:00 +29°C° 0 mm 2 mps 744 mmHg 37%
    10:00 +34°C° 0 mm 2 mps 744 mmHg 35%
    11:00 +34°C° 0 mm 2 mps 744 mmHg 38%
    12:00 +35°C° 0 mm 2 mps 744 mmHg 40%
    13:00 +36°C° 0 mm 2 mps 743 mmHg 43%
    14:00 +36°C° 0 mm 3 mps 743 mmHg 49%
    15:00 +35°C° 0 mm 3 mps 743 mmHg 55%
    16:00 +34°C° 0 mm 4 mps 742 mmHg 61%
    17:00 +31°C° 0 mm 3 mps 743 mmHg 69%
    18:00 +30°C° 0 mm 3 mps 743 mmHg 78%
    19:00 +28°C° 0 mm 2 mps 743 mmHg 86%
    20:00 +28°C° 0.1 mm 2 mps 744 mmHg 87%
    21:00 +28°C° 0.1 mm 2 mps 745 mmHg 89%
    22:00 +28°C° 0.1 mm 2 mps 745 mmHg 90%
    23:00 +27°C° 0.1 mm 1 mps 745 mmHg 91%

    23 February, Saturday

    Time Temperature Precipitation Wind Pressure Humidity
    00:00 +27°C° 0.1 mm 1 mps 745 mmHg 93%
    01:00 +27°C° 0.1 mm 1 mps 745 mmHg 94%
    02:00 +26°C° 0.1 mm 1 mps 744 mmHg 95%
    03:00 +26°C° 0.1 mm 1 mps 744 mmHg 96%
    04:00 +26°C° 0.1 mm 1 mps 744 mmHg 96%
    05:00 +26°C° 0 mm 1 mps 744 mmHg 96%
    06:00 +26°C° 0 mm 1 mps 745 mmHg 95%
    07:00 +26°C° 0 mm 1 mps 745 mmHg 95%
    08:00 +28°C° 0 mm 1 mps 746 mmHg 85%
    09:00 +30°C° 0 mm 1 mps 746 mmHg 76%
    10:00 +32°C° 0 mm 2 mps 746 mmHg 66%
    11:00 +32°C° 0 mm 2 mps 746 mmHg 62%
    12:00 +34°C° 0 mm 2 mps 746 mmHg 59%
    13:00 +35°C° 0 mm 3 mps 745 mmHg 56%
    14:00 +34°C° 0 mm 3 mps 745 mmHg 57%
    15:00 +34°C° 0 mm 3 mps 744 mmHg 58%
    16:00 +34°C° 0 mm 3 mps 744 mmHg 59%
    17:00 +31°C° 0.1 mm 2 mps 744 mmHg 67%
    18:00 +29°C° 0.1 mm 2 mps 745 mmHg 76%
    19:00 +27°C° 0.1 mm 1 mps 745 mmHg 84%
    20:00 +27°C° 0 mm 1 mps 746 mmHg 86%
    21:00 +26°C° 0 mm 1 mps 746 mmHg 88%
    22:00 +26°C° 0 mm 1 mps 747 mmHg 91%
    23:00 +26°C° 0 mm 1 mps 746 mmHg 92%

    24 February, Sunday

    Time Temperature Precipitation Wind Pressure Humidity
    00:00 +26°C° 0 mm 1 mps 746 mmHg 93%
    01:00 +25°C° 0 mm 1 mps 746 mmHg 94%
    02:00 +25°C° 0 mm 1 mps 746 mmHg 95%
    03:00 +25°C° 0 mm 1 mps 745 mmHg 95%
    04:00 +25°C° 0 mm 1 mps 745 mmHg 96%
    05:00 +25°C° 0.7 mm 1 mps 746 mmHg 95%
    06:00 +25°C° 0.7 mm 1 mps 746 mmHg 95%
    07:00 +25°C° 0.7 mm 1 mps 747 mmHg 94%
    08:00 +28°C° 0.1 mm 2 mps 747 mmHg 83%
    09:00 +30°C° 0.1 mm 2 mps 747 mmHg 72%
    10:00 +32°C° 0.1 mm 2 mps 748 mmHg 60%
    11:00 +34°C° 0 mm 2 mps 747 mmHg 55%
    12:00 +35°C° 0 mm 2 mps 746 mmHg 51%
    13:00 +36°C° 0 mm 2 mps 746 mmHg 46%
    14:00 +35°C° 0 mm 3 mps 746 mmHg 48%
    15:00 +35°C° 0 mm 3 mps 745 mmHg 51%
    16:00 +34°C° 0 mm 3 mps 745 mmHg 53%
    17:00 +31°C° 0 mm 2 mps 746 mmHg 62%
    18:00 +29°C° 0 mm 2 mps 746 mmHg 71%
    19:00 +27°C° 0 mm 2 mps 747 mmHg 80%
    20:00 +27°C° 0 mm 1 mps 747 mmHg 83%
    21:00 +26°C° 0 mm 1 mps 747 mmHg 86%
    22:00 +26°C° 0 mm 1 mps 748 mmHg 89%
    23:00 +26°C° 0 mm 1 mps 748 mmHg 90%

    25 February, Monday

    Time Temperature Precipitation Wind Pressure Humidity
    00:00 +25°C° 0 mm 1 mps 747 mmHg 91%
    01:00 +25°C° 0 mm 1 mps 747 mmHg 93%
    02:00 +25°C° 0 mm 1 mps 747 mmHg 93%
    03:00 +25°C° 0 mm 1 mps 747 mmHg 94%
    04:00 +24°C° 0 mm 1 mps 747 mmHg 94%
    05:00 +25°C° 0 mm 1 mps 748 mmHg 93%
    06:00 +25°C° 0 mm 1 mps 748 mmHg 91%
    07:00 +25°C° 0 mm 1 mps 749 mmHg 89%
    08:00 +27°C° 0 mm 1 mps 749 mmHg 81%
    09:00 +29°C° 0 mm 1 mps 749 mmHg 73%
    10:00 +31°C° 0 mm 1 mps 749 mmHg 64%
    11:00 +32°C° 0.1 mm 2 mps 749 mmHg 62%
    12:00 +32°C° 0.1 mm 2 mps 748 mmHg 59%
    13:00 +34°C° 0.1 mm 3 mps 748 mmHg 56%
    14:00 +34°C° 0 mm 3 mps 747 mmHg 58%
    15:00 +33°C° 0 mm 3 mps 747 mmHg 60%
    16:00 +33°C° 0 mm 3 mps 747 mmHg 61%
    17:00 +30°C° 0 mm 2 mps 747 mmHg 69%
    18:00 +29°C° 0 mm 2 mps 747 mmHg 76%
    19:00 +27°C° 0 mm 2 mps 748 mmHg 84%
    20:00 +26°C° 0 mm 1 mps 748 mmHg 86%
    21:00 +26°C° 0 mm 1 mps 748 mmHg 89%
    22:00 +26°C° 0 mm 1 mps 749 mmHg 92%
    23:00 +26°C° 0 mm 1 mps 748 mmHg 92%
    Show more